Location: Stockholm
(59.3316°N, 18.0562°E)
Time: 00:10:58
(UTC+02:00)

ISS - Visible Passes

Search period start: 22 October 2020 00:00
Search period end: 31 October 2020 23:00
Orbit: 417 x 420 km, 51.6° (Epoch: 21 October)

Date Brightness Start Highest point End Pass type
(mag) Time Alt. Az. Time Alt. Az. Time Alt. Az.
25 Oct -0.9 05:56:36 10° SSW 05:58:31 14° SSE 06:00:25 10° ESE visible
26 Oct -0.9 05:09:45 10° S 05:11:01 12° SSE 05:12:16 10° SE visible
27 Oct -1.4 05:56:54 10° SW 05:59:23 19° SSE 06:01:52 10° ESE visible
28 Oct -1.3 05:09:34 10° SSW 05:11:49 17° SSE 05:14:05 10° ESE visible
29 Oct -1.3 04:23:29 13° S 04:24:17 14° SSE 04:26:11 10° ESE visible
29 Oct -1.7 05:57:37 10° SW 06:00:18 22° S 06:02:58 10° SE visible
30 Oct -0.7 03:37:47 11° SE 03:37:47 11° SE 03:38:00 10° SE visible
30 Oct -1.7 05:10:44 13° SW 05:12:42 21° S 05:15:20 10° ESE visible
31 Oct -1.7 04:24:58 19° S 04:25:08 19° SSE 04:27:37 10° ESE visible
31 Oct -1.8 05:58:35 10° WSW 06:01:14 21° S 06:03:52 10° SE visible
